Погода в Лас-Вегасе

США     36°14′01″N   115°14′29″W
темп.,
°C
ветер,
м/с
пор.,
м/с
влажн.,
%
обл.,
%
осадки,
мм/ч
давл.,
гПа
погр.,
м
15 мая, сб
сб1523:00+25ююз45135 0.0 100470
02:00+21ююз122122 0.0 100430
05:00+18всв23280 0.0 100532
08:00+23юв34202 0.0 1005668
11:00+29ююз812114 0.0 10042272
14:00+31юз111290 0.0 10023264
17:00+30юз81090 0.0 9993645
20:00+25зюз913140 0.0 1000351
16 мая, вс
вс1623:00+19з44230 0.0 100383
02:00+16ю12280 0.0 100339
05:00+14св23360 0.0 100540
08:00+17всв11310 0.0 1007498
11:00+22юв32215 0.0 10071633
14:00+25ю4320100 0.0 10052689
17:00+22сз7731100 0.5 1005816
20:00+21сз3429100 0.2 1005119
17 мая, пн
пн1723:00+19сз45344 0.2 100785
02:00+18зсз33372 0.0 100635
05:00+16ссз33401 0.0 100831
08:00+21ссз13310 0.0 1010573
11:00+26св141912 0.0 10092496
14:00+29в14121 0.0 10063632
17:00+30зюз36123 0.0 10043560
20:00+26зсз551845 0.1 1005109
18 мая, вт
вт1823:00+22з22251 0.1 100729
02:00+20з11310 0.0 100722
05:00+18з01340 0.0 100721
08:00+23вюв21260 0.0 1008332
11:00+28юв32190 0.0 10071138
14:00+27зюз12112749 0.1 1006851
17:00+27юз6723100 0.4 1005568
20:00+24ю01265 0.0 100430
19 мая, ср
ср1923:00+21ссз11337 0.0 100629
02:00+19ссз11402 0.0 100522
05:00+18вюв22430 0.0 100523
08:00+22вюв22320 0.0 1006345
11:00+27юв46150 0.0 10051313
14:00+31ююз121275 0.0 10012775
17:00+31юз12125100 0.0 9982923
20:00+26юз688100 0.0 998225